Regional Weather Roundup
Issued by NWS State College, PA

Home | Current Version | Previous Version | Text Only | Print | Product List | Glossary On
Versions: 1 2 3 4 5 6 7 8 9 10 11 12 13 14 15 16 17 18 19 20 21 22 23 24 25 26 27 28 29 30 31 32 33 34 35 36 37 38 39 40 41 42 43 44 45 46 47 48 49 50
000
ASUS41 KCTP 081110
RWRCTP

REGIONAL WEATHER ROUNDUP
NATIONAL WEATHER SERVICE STATE COLLEGE PA
600 AM EST THU DEC 08 2016

Note: "fair" indicates few or no clouds below 12,000 feet with no
significant weather and/or obstructions to visibility.

* = STATION THAT DOES NOT REPORT PRECIPITATION /E.G. RAIN...SNOW...ETC/
    THUNDER OR FOG.

PAZ002>004-007>009-013>016-020>023-029>032-081200-
WESTERN PENNSYLVANIA

CITY           SKY/WX    TMP DP  RH WIND       PRES   REMARKS
ERIE           CLOUDY    33  23  66 SW16G22   29.97S
MEADVILLE      CLOUDY    28  20  71 SW8       29.97S
FRANKLIN*        N/A     28  18  64 SW8       29.98S
NEW CASTLE     CLOUDY    30  23  75 W8        30.01F
BEAVER COUNTY  NOT AVBL
BUTLER*        PTCLDY    30  21  69 SW7       30.02F
PITTSBURGH INT CLOUDY    33  24  69 SW7       30.01F
PITTSBURGH     CLOUDY    32  21  64 SW9       30.01F
INDIANA*       CLOUDY    30  23  74 W8        30.02S
LATROBE        CLOUDY    32  23  69 SW7       30.03S
WASHINGTON CO* CLOUDY    30  21  69 SW7       30.04S
$$

PAZ004>006-010>012-017>019-024>028-033>037-041-042-045-046-049>053-081200-
CENTRAL PENNSYLVANIA

CITY           SKY/WX    TMP DP  RH WIND       PRES   REMARKS
BRADFORD       CLOUDY    28  22  78 VRB6      29.90S
DUBOIS         CLOUDY    28  21  75 SW10      29.93F
CLEARFIELD     PTCLDY    29  22  75 SW7       29.95F
JOHNSTOWN      MOCLDY    27  19  72 SW6       29.94F
ALTOONA        CLOUDY    31  20  63 SW7       29.98F
STATE COLLEGE  MOCLDY    30  19  64 SW6       29.98S
WILLIAMSPORT   MOCLDY    34  23  64 W7        29.98F
SELINSGROVE    MOCLDY    31  30  96 CALM      30.01F
FT INDIANTOWN  CLOUDY    30  29  98 N2        30.00S
CAPITAL CITY   CLOUDY    34  26  72 CALM      30.01S
HARRISBURG     CLOUDY    33  31  92 E3        30.00F
YORK           CLOUDY    31  29  92 CALM      30.00F
$$

PAZ038>040-043-044-047-048-054-055-060>062-067>071-081200-
EASTERN PENNSYLVANIA

CITY           SKY/WX    TMP DP  RH WIND       PRES   REMARKS
SCRANTON       CLOUDY    34  24  67 SW6       29.96F
MOUNT POCONO   CLOUDY    29  21  72 W9        29.91S
ALLENTOWN      CLOUDY    32  25  75 SW6       30.00R
QUAKERTOWN*    CLOUDY    28  28 100 CALM      30.00S
READING        CLOUDY    33  26  75 CALM      30.00F
LANCASTER      CLOUDY    30  29  96 CALM      30.01S
COATESVILLE    PTSUNNY   34  23  64 CALM      30.01S
POTTSTOWN      CLOUDY    30  28  92 CALM      30.02S FOG
BLUE BELL      CLOUDY    32  30  93 CALM      30.01R
DOYLESTOWN     PTCLDY    33  30  88 CALM      29.99R
WILLOW GROVE   NOT AVBL
NORTH PHILA    PTCLDY    33  29  85 W5        30.04R
PHILADELPHIA   MOCLDY    37  28  70 SW7       30.04R
$$




USA.gov is the U.S. government's official web portal to all federal, state and local government web resources and services.